Date,TemperatureHighF,TemperatureAvgF,TemperatureLowF,DewpointHighF,DewpointAvgF,DewpointLowF,HumidityHigh,HumidityAvg,HumidityLow,PressureMaxIn,PressureMinIn,WindSpeedMaxMPH,WindSpeedAvgMPH,GustSpeedMaxMPH,PrecipitationSumIn
2013-1-1,53,50,47,53,45,31,100,84,50,30.12,29.94,14,1,14,0.58
2013-1-2,54,50,47,52,48,42,100,91,65,30.14,29.90,6,0,6,0.06
2013-1-3,49,44,37,48,42,28,100,95,66,30.29,30.09,10,1,10,0.00
2013-1-4,57,42,31,37,30,25,100,67,40,30.34,30.22,14,2,14,0.00
2013-1-5,51,41,29,40,30,24,100,66,46,30.38,30.22,8,1,8,0.02
2013-1-6,60,48,40,49,41,32,100,79,58,30.23,30.04,8,1,8,0.01
2013-1-7,56,42,33,37,32,30,99,70,40,30.41,30.21,9,1,9,0.00
2013-1-8,53,42,31,49,37,29,100,83,61,30.45,30.35,4,0,4,0.00
2013-1-9,64,55,48,60,52,43,100,88,72,30.45,30.38,7,0,7,0.00
2013-1-10,68,58,47,58,53,47,100,85,58,30.50,30.35,7,1,7,0.03
2013-1-11,58,52,51,58,52,51,100,100,100,30.35,30.17,6,0,6,0.53
2013-1-12,74,61,53,70,60,53,100,95,68,30.18,30.11,11,1,11,0.01
2013-1-13,73,62,55,68,61,55,100,96,73,30.16,30.07,11,1,11,0.00
2013-1-14,68,63,59,68,63,59,100,100,100,30.13,30.06,10,1,10,0.50
2013-1-15,64,53,46,64,53,46,100,100,100,30.16,30.05,12,0,12,0.56
2013-1-16,55,49,46,55,49,46,100,100,100,30.06,29.96,4,0,4,0.58
2013-1-17,56,49,40,56,49,40,100,100,100,30.21,29.74,17,2,17,1.06
2013-1-18,57,43,34,41,34,29,100,75,40,30.49,30.21,10,2,10,0.00
2013-1-19,59,42,30,43,33,29,100,75,40,30.49,30.18,9,2,9,0.01
2013-1-20,68,49,35,45,36,30,100,63,37,30.18,30.02,13,2,13,0.00
2013-1-21,67,48,33,46,33,22,100,63,32,30.08,29.94,20,3,20,0.00
2013-1-22,50,38,30,31,22,17,89,54,32,30.24,30.02,8,1,8,0.00
2013-1-23,57,40,25,36,26,17,95,59,40,30.33,30.07,12,2,12,0.00
2013-1-24,54,43,31,41,24,8,96,51,21,30.48,30.00,14,4,14,0.00
2013-1-25,34,31,27,34,23,13,99,73,49,30.50,30.10,8,1,8,0.00
2013-1-26,56,39,30,42,34,29,100,85,45,30.33,30.09,6,0,6,0.04
2013-1-27,50,39,32,42,33,30,100,80,58,30.54,30.33,7,0,7,0.00
2013-1-28,55,48,42,52,40,32,98,76,64,30.46,30.26,10,1,10,0.00
2013-1-29,72,58,42,65,55,42,100,91,69,30.27,30.03,10,2,10,0.01
2013-1-30,69,64,51,68,63,50,100,96,81,30.03,29.48,21,8,21,0.69
2013-1-31,58,47,38,50,34,26,96,62,39,30.06,29.61,19,7,19,0.00